sat.trackr.live / text

‹ back to catalog

AE1A

NORAD 68487 · 2026-067BZ

PAYLOAD ACTIVE UNKNOWN

§ Identity

Operator
Country
JPN
Launch date
2026-03-30
Launch site
AFWTR
Launch vehicle
Mass (kg)
RCS (m²)

External: N2YO · Heavens-Above · Gunter

§ Orbital elements

Epoch: 2026-09-20T02:48:27.023616Z

Period
96.43 min
Inclination
97.7648°
Eccentricity
0.0000877
Mean motion
14.93272791 rev/d
Perigee alt
587.1 km
Apogee alt
588.3 km
Semi-major
6,965.9 km
B*
2.2967e-4
RAAN
220.0901°
Arg perigee
14.8404°
Mean anomaly
345.2841°
Rev number
2,589

§ Raw data

AE1A1 68487U 26067BZ  26263.11697944  .00002347  00000+0  22967-3 0  99982 68487  97.7648 220.0901 0000877  14.8404 345.2841 14.93272791 25899

JSON: /api/v1/satellites/68487 · /tle

For live sub-satellite position, see the globe view (requires WebGL).

§ Visibility from observer

Set your observer location to see the next 7 days of passes ≥ 10°. The values pass through the URL so the page stays shareable.

No JS? Fill the form by hand. The geolocation button needs JavaScript.